INTELSAT 904 (IS-904)

Last updated on Sun Jun 21 2026 00:03:03 GMT+0000 (Coordinated Universal Time)

1 27380U 02007A 26171.10054338 -.00000233 00000+0 00000+0 0 9997 2 27380 6.9283 69.1510 0006584 7.3069 196.5436 1.00270151 51793
UTC large
Height (km)
Speed (km/s)
/
Latitude / Longitude
Inclination (degrees)
Orbital Period (minutes)
Azimuth
Elevation
Range (km)
Doppler Factor

Next 0 passes for location: London (51.5072 / 0.1276)

No passes found over London.
INTELSAT 904 (IS-904)